User: anonymous   Login
Location: Unspecified
(0.0000°N, 0.0000°E)
Time: 22:28:47
(UTC+00:00)
Language:

MERIDIAN 1 - Orbit

View from above orbital plane
View from above orbital plane
View from above satellite
View from above satellite

Ground track
Ground track

The orbit data is extracted from the following two-line orbital elements,

1 29668U 06061A   18108.89429976 -.00000138 +00000-0 -42800-2 0  9996
2 29668 064.5053 053.6955 7333173 236.1618 032.5909 02.00642344082927
Epoch (UTC): 18 April 2018 21:27:47
Eccentricity: 0.7333173
inclination: 64.5053°
perigee height: 703 km
apogee height: 39647 km
right ascension of ascending node: 53.6955°
argument of perigee: 236.1618°
revolutions per day: 2.00642344
mean anomaly at epoch: 32.5909°
orbit number at epoch: 8292

The dashed part of the orbit path shows where the satellite is in the earth's shadow,  

DLR